EA8FO Weather Reports


time (UTC)temp
C
wind
direction
speed
KPH
gust
KPH
rain 1hr
cm
rain 24hr
cm
rain mn
cm
humidity
%
barometer
mb
20260505041524 17 309 0.0 1.6 0.00 0.00 0.00 85 1014.1
20260505040018 17 330 0.0 1.6 0.00 0.00 0.00 85 1014.1
20260505034523 17 77 0.0 1.6 0.00 0.00 0.00 85 1014.2
20260505033022 17 77 0.0 1.6 0.00 0.00 0.00 84 1014.2
20260505031522 17 77 0.0 1.6 0.00 0.00 0.00 83 1014.3
20260505030029 17 77 0.0 1.6 0.00 0.00 0.00 83 1014.4
20260505024522 18 229 0.0 1.6 0.00 0.00 0.00 83 1014.3
20260505023025 18 229 0.0 1.6 0.00 0.00 0.00 82 1014.4
20260505021508 18 227 0.0 1.6 0.00 0.00 0.00 83 1014.6
20260505020012 18 227 0.0 1.6 0.00 0.00 0.00 82 1014.9
20260505014517 18 227 0.0 1.6 0.00 0.00 0.00 82 1015.2
20260505013023 18 354 0.0 1.6 0.00 0.00 0.00 82 1015.2
20260505011504 18 344 0.0 1.6 0.00 0.00 0.00 82 1015.4
20260505010011 18 340 0.0 1.6 0.00 0.00 0.00 81 1015.6
20260505004529 18 67 0.0 1.6 0.00 0.00 0.00 81 1015.7
20260505003021 18 335 0.0 1.6 0.00 0.00 0.00 80 1015.8
20260505001524 18 341 0.0 3.2 0.00 0.00 0.00 80 1016.3
20260505000007 18 33 0.0 3.2 0.00 0.00 0.00 77 1016.2
20260504234525 18 95 0.0 3.2 0.00 0.00 0.00 77 1016.2
20260504233018 18 91 0.0 4.8 0.00 0.00 0.00 80 1016.2
20260504231537 19 210 0.0 1.6 0.00 0.00 0.00 83 1016.5
20260504230024 19 210 0.0 1.6 0.00 0.00 0.00 83 1016.6
20260504224507 19 181 0.0 1.6 0.00 0.00 0.00 82 1016.5
20260504223014 19 142 0.0 1.6 0.00 0.00 0.00 81 1016.4
20260504221518 19 207 0.0 1.6 0.00 0.00 0.00 80 1016.3
20260504220026 20 201 1.6 3.2 0.00 0.00 0.00 79 1016.4
20260504214512 20 303 1.6 3.2 0.00 0.00 0.00 78 1016.2
20260504213012 20 299 1.6 6.4 0.00 0.00 0.00 77 1016.2
20260504211516 20 278 3.2 6.4 0.00 0.00 0.00 77 1016.3
20260504210022 20 262 3.2 6.4 0.00 0.00 0.00 76 1016.0
20260504204551 20 307 1.6 4.8 0.00 0.00 0.00 76 1015.6
20260504203012 20 308 0.0 6.4 0.00 0.00 0.00 76 1015.5
20260504201514 20 293 3.2 6.4 0.00 0.00 0.00 76 1015.5
20260504200023 20 300 3.2 8.0 0.00 0.00 0.00 76 1015.2
20260504194603 20 293 3.2 9.7 0.00 0.00 0.00 76 1015.2
20260504193055 21 274 3.2 9.7 0.00 0.00 0.00 74 1015.2
20260504191751 21 302 3.2 11.3 0.00 0.00 0.00 70 1015.1
20260504190203 22 248 4.8 12.9 0.00 0.00 0.00 68 1014.8
20260504184637 22 85 3.2 9.7 0.00 0.00 0.00 62 1014.4
20260504183100 22 65 4.8 14.5 0.00 0.00 0.00 62 1014.3
20260504181600 22 91 6.4 16.1 0.00 0.00 0.00 63 1014.2
20260504180014 22 140 4.8 14.5 0.00 0.00 0.00 66 1014.2
20260504174625 23 355 3.2 9.7 0.00 0.00 0.00 63 1014.4
20260504173107 24 110 1.6 6.4 0.00 0.00 0.00 66 1014.8
20260504171657 23 82 3.2 9.7 0.00 0.00 0.00 68 1015.1
20260504170119 23 124 1.6 8.0 0.00 0.00 0.00 67 1015.1
20260504160200 23 48 4.8 8.0 0.00 0.00 0.00 66 1015.6
20260504150157 23 223 3.2 11.3 0.00 0.00 0.00 66 1015.7
20260504140118 24 257 4.8 17.7 0.00 0.00 0.00 61 1015.8
20260504090111 22 343 1.6 4.8 0.00 0.00 0.00 65 1016.1
20260504081503 21 91 0.0 4.8 0.00 0.00 0.00 73 1016.2